Time,TemperatureF,DewpointF,PressureIn,WindDirection,WindDirectionDegrees,WindSpeedMPH,WindSpeedGustMPH,Humidity,HourlyPrecipIn,Conditions,Clouds,dailyrainin,SoftwareType,DateUTC
2013-08-19 00:12:00,65.0,65.0,30.22,NNW,332,0.0,0.0,100,0.04,,,0.12,,2013-08-19 04:12:00,
2013-08-19 00:23:00,65.0,65.0,30.22,NNW,332,0.0,0.0,100,0.04,,,0.12,,2013-08-19 04:23:00,
2013-08-19 00:53:00,64.0,64.0,30.23,NNW,332,0.0,0.0,100,0.02,,,0.13,,2013-08-19 04:53:00,
2013-08-19 01:11:00,64.0,64.0,30.23,NNW,332,0.0,0.0,100,0.03,,,0.15,,2013-08-19 05:11:00,
2013-08-19 01:22:00,64.0,64.0,30.23,NNW,332,0.0,0.0,100,0.03,,,0.15,,2013-08-19 05:22:00,
2013-08-19 01:52:00,64.0,64.0,30.21,NNW,332,0.0,0.0,100,0.04,,,0.17,,2013-08-19 05:52:00,
2013-08-19 02:11:00,63.0,63.0,30.21,NNW,332,0.0,0.0,100,0.03,,,0.16,,2013-08-19 06:11:00,
2013-08-19 02:21:00,63.0,63.0,30.21,NNW,332,0.0,0.0,100,0.03,,,0.16,,2013-08-19 06:21:00,
2013-08-19 02:32:00,63.0,63.0,30.21,NNW,332,0.0,0.0,100,0.03,,,0.16,,2013-08-19 06:32:00,
2013-08-19 03:12:00,63.0,63.0,30.19,NNW,332,0.0,0.0,100,0.02,,,0.18,,2013-08-19 07:12:00,
2013-08-19 03:21:00,63.0,63.0,30.19,NNW,332,0.0,0.0,100,0.02,,,0.18,,2013-08-19 07:21:00,
2013-08-19 03:52:00,63.0,63.0,30.18,NNW,332,0.0,0.0,100,0.06,,,0.23,,2013-08-19 07:52:00,
2013-08-19 04:11:00,62.0,62.0,30.18,NNW,332,0.0,0.0,100,0.16,,,0.34,,2013-08-19 08:11:00,
2013-08-19 04:22:00,62.0,62.0,30.18,NNW,332,0.0,0.0,100,0.16,,,0.34,,2013-08-19 08:22:00,
2013-08-19 04:52:00,62.0,62.0,30.18,NNW,332,0.0,0.0,100,0.17,,,0.40,,2013-08-19 08:52:00,
2013-08-19 05:11:00,62.0,62.0,30.17,NNW,332,0.0,0.0,100,0.09,,,0.43,,2013-08-19 09:11:00,
2013-08-19 05:22:00,62.0,62.0,30.17,NNW,332,0.0,0.0,100,0.09,,,0.43,,2013-08-19 09:22:00,
2013-08-19 05:53:00,62.0,62.0,30.17,NNW,332,0.0,0.0,100,0.05,,,0.45,,2013-08-19 09:53:00,
2013-08-19 06:12:00,62.0,62.0,30.16,NNW,332,0.0,0.0,100,0.04,,,0.47,,2013-08-19 10:12:00,
2013-08-19 06:23:00,62.0,62.0,30.16,NNW,332,0.0,0.0,100,0.04,,,0.47,,2013-08-19 10:23:00,
2013-08-19 06:52:00,62.0,62.0,30.17,NNW,332,0.0,0.0,100,0.05,,,0.50,,2013-08-19 10:52:00,
2013-08-19 07:12:00,62.0,62.0,30.17,NNW,332,0.0,0.0,100,0.25,,,0.71,,2013-08-19 11:12:00,
2013-08-19 07:22:00,62.0,62.0,30.17,NNW,332,0.0,0.0,100,0.25,,,0.71,,2013-08-19 11:22:00,
2013-08-19 07:52:00,62.0,62.0,30.17,NNW,332,0.0,0.0,100,0.50,,,0.99,,2013-08-19 11:52:00,
2013-08-19 08:11:00,62.0,62.0,30.16,NNW,332,0.0,0.0,100,0.47,,,1.16,,2013-08-19 12:11:00,
2013-08-19 08:21:00,62.0,62.0,30.16,NNW,332,0.0,0.0,100,0.47,,,1.16,,2013-08-19 12:21:00,
2013-08-19 08:52:00,62.0,62.0,30.17,NNW,332,0.0,0.0,100,6.12,,,6.22,,2013-08-19 12:52:00,
2013-08-19 09:13:00,62.0,62.0,30.18,South,178,0.0,1.0,100,6.11,,,6.22,,2013-08-19 13:13:00,
2013-08-19 09:22:00,62.0,62.0,30.18,South,178,0.0,1.0,100,6.11,,,6.22,,2013-08-19 13:22:00,
2013-08-19 09:52:00,62.0,62.0,30.18,South,178,0.0,0.0,100,0.09,,,6.23,,2013-08-19 13:52:00,
2013-08-19 10:11:00,63.0,63.0,30.17,South,178,0.0,0.0,100,0.03,,,6.22,,2013-08-19 14:11:00,
2013-08-19 10:22:00,63.0,63.0,30.17,South,178,0.0,0.0,100,0.03,,,6.22,,2013-08-19 14:22:00,
2013-08-19 10:52:00,64.0,64.0,30.17,South,178,0.0,0.0,100,0.00,,,6.22,,2013-08-19 14:52:00,
2013-08-19 11:11:00,64.0,64.0,30.19,South,178,0.0,0.0,100,0.00,,,6.22,,2013-08-19 15:11:00,
2013-08-19 11:23:00,64.0,64.0,30.19,South,178,0.0,0.0,100,0.00,,,6.22,,2013-08-19 15:23:00,
2013-08-19 11:54:00,65.0,65.0,30.18,South,178,0.0,0.0,100,0.00,,,6.22,,2013-08-19 15:54:00,
2013-08-19 12:13:00,65.0,65.0,30.19,South,178,0.0,0.0,100,0.00,,,6.22,,2013-08-19 16:13:00,
2013-08-19 12:23:00,65.0,65.0,30.19,South,178,0.0,0.0,100,0.00,,,6.22,,2013-08-19 16:23:00,
2013-08-19 13:12:00,66.0,66.0,30.19,South,178,0.0,0.0,100,0.00,,,6.22,,2013-08-19 17:12:00,
2013-08-19 13:13:00,66.0,66.0,30.19,South,178,0.0,0.0,100,0.00,,,6.22,,2013-08-19 17:13:00,
2013-08-19 13:30:00,66.0,-99.9,30.19,South,178,0.0,0.0,100,0.00,,,6.22,,2013-08-19 17:30:00,
2013-08-19 13:57:00,66.0,66.0,30.19,South,178,0.0,0.0,100,0.00,,,6.22,,2013-08-19 17:57:00,
2013-08-19 14:05:00,66.0,66.0,30.19,South,178,0.0,0.0,100,0.00,,,6.22,,2013-08-19 18:05:00,
2013-08-19 14:50:00,-999.0,-99.9,30.17,South,179,0.0,0.0,99,0.00,,,6.22,,2013-08-19 18:50:00,
2013-08-19 15:00:00,-999.0,-99.9,30.17,South,179,0.0,0.0,99,0.00,,,6.22,,2013-08-19 19:00:00,
2013-08-19 15:16:00,69.0,68.0,30.16,South,179,0.0,0.0,97,0.00,,,6.22,,2013-08-19 19:16:00,
2013-08-19 15:30:00,-999.0,-99.9,30.16,South,179,0.0,0.0,97,0.00,,,6.22,,2013-08-19 19:30:00,
2013-08-19 15:59:00,71.0,69.0,30.14,South,179,0.0,0.0,94,0.00,,,6.22,,2013-08-19 19:59:00,
2013-08-19 16:20:00,71.0,69.0,30.13,South,179,0.0,0.0,95,0.00,,,6.22,,2013-08-19 20:20:00,
2013-08-19 16:30:00,71.0,-99.9,30.13,South,179,0.0,0.0,95,0.00,,,6.22,,2013-08-19 20:30:00,
2013-08-19 17:00:00,-999.0,-99.9,30.14,South,179,0.0,0.0,-999,-99.99,,,-99.99,,2013-08-19 21:00:00,
2013-08-19 17:16:00,67.0,67.0,30.14,South,179,0.0,0.0,100,0.16,,,6.24,,2013-08-19 21:16:00,
2013-08-19 17:25:00,67.0,67.0,30.14,South,179,0.0,0.0,100,0.16,,,6.24,,2013-08-19 21:25:00,
2013-08-19 17:55:00,67.0,67.0,30.13,South,179,0.0,0.0,100,0.09,,,6.24,,2013-08-19 21:55:00,
2013-08-19 18:25:00,67.0,67.0,30.13,South,179,0.0,0.0,100,0.13,,,6.25,,2013-08-19 22:25:00,
2013-08-19 18:55:00,67.0,67.0,30.13,South,179,0.0,0.0,100,0.16,,,6.26,,2013-08-19 22:55:00,
2013-08-19 19:15:00,66.0,66.0,30.13,South,179,0.0,0.0,100,0.11,,,6.26,,2013-08-19 23:15:00,
2013-08-19 19:25:00,66.0,66.0,30.13,South,179,0.0,0.0,100,0.11,,,6.26,,2013-08-19 23:25:00,
2013-08-19 19:48:00,66.0,66.0,30.14,South,179,0.0,0.0,100,0.08,,,6.27,,2013-08-19 23:48:00,
2013-08-19 19:55:00,66.0,66.0,30.14,South,179,0.0,0.0,100,0.08,,,6.27,,2013-08-19 23:55:00,
2013-08-19 20:24:00,65.0,65.0,30.15,South,179,0.0,0.0,100,0.12,,,6.27,,2013-08-20 00:24:00,
2013-08-19 20:53:00,65.0,65.0,30.16,South,179,0.0,0.0,100,0.11,,,6.28,,2013-08-20 00:53:00,
2013-08-19 21:11:00,65.0,65.0,30.16,South,179,0.0,0.0,100,0.10,,,6.28,,2013-08-20 01:11:00,
2013-08-19 21:22:00,65.0,65.0,30.16,South,179,0.0,0.0,100,0.10,,,6.28,,2013-08-20 01:22:00,
2013-08-19 21:52:00,64.0,64.0,30.17,South,179,0.0,0.0,100,0.10,,,6.29,,2013-08-20 01:52:00,
2013-08-19 22:11:00,64.0,64.0,30.17,South,179,0.0,0.0,100,0.04,,,6.29,,2013-08-20 02:11:00,
2013-08-19 22:21:00,64.0,64.0,30.17,South,179,0.0,0.0,100,0.04,,,6.29,,2013-08-20 02:21:00,
2013-08-19 22:52:00,64.0,64.0,30.17,South,179,0.0,0.0,100,0.01,,,6.29,,2013-08-20 02:52:00,
2013-08-19 23:11:00,64.0,64.0,30.17,South,179,0.0,0.0,100,0.00,,,6.29,,2013-08-20 03:11:00,
2013-08-19 23:22:00,64.0,64.0,30.17,South,179,0.0,0.0,100,0.00,,,6.29,,2013-08-20 03:22:00,
2013-08-19 23:54:00,64.0,64.0,30.17,South,179,0.0,0.0,100,0.00,,,6.29,,2013-08-20 03:54:00,